RH
48 52 56 60 44 35 29 44 53 76 82 87 88 97 98 87 81 81 82 83 84 85 87 74 66 89 96 98 96 93 95 96 97 93 88 86 81 81 84 82 88 88 89 86 92 89 83 66 67 63 63 58 56 56
42 48 57 57 46 52 28 39 55 73 86 89 87 97 99 83 83 79 82 80 83 87 88 74 68 88 93 97 97 95 94 91 89 87 83 83 77 74 77 90 81 85 77 81 79 72 69 67 69 66 65 63 64 61
46 47 56 56 49 46 29 37 54 70 83 85 88 93 95 86 75 78 86 82 81 86 88 82 70 87 92 95 98 95 92 89 88 85 82 82 77 73 73 69 77 73 73 71 69 67 68 68 67 68 70 69 67 65
49 48 55 58 56 35 29 29 56 73 81 85 89 91 93 92 84 84 84 77 77 85 86 83 74 80 90 93 98 97 98 94 94 91 90 85 79 75 77 69 69 65 69 71 70 69 70 69 69 68 70 69 68 59
58 56 58 51 57 37 31 31 57 72 80 83 90 89 96 97 77 82 84 73 76 82 87 87 75 72 88 92 96 98 98 97 96 97 98 95 86 85 83 81 76 66 67 72 73 71 70 71 72 70 67 62 56 68
59 60 57 57 56 42 30 31 49 74 79 80 91 90 99 92 86 89 83 73 72 79 85 88 82 70 83 92 94 96 95 93 90 91 93 95 93 89 88 83 69 75 70 69 72 69 63 62 59 55 56 62 67 65
62 65 54 54 57 52 35 32 56 75 78 79 91 95 98 96 87 81 80 70 66 79 84 87 84 71 76 94 94 93 89 86 85 86 85 84 81 78 76 75 62 60 61 61 54 45 49 49 50 53 59 64 65 64
62 68 61 61 62 52 40 35 65 73 76 89 98 98 99 97 87 87 81 70 71 79 82 85 87 83 72 83 95 92 92 90 87 82 78 76 71 67 67 57 52 50 47 47 51 51 52 53 56 59 59 58 57 56
60 67 60 58 61 48 35 44 66 72 78 94 96 98 99 98 89 82 81 76 74 81 87 84 80 89 81 74 85 93 94 94 87 86 80 72 68 63 51 49 46 46 47 46 48 50 51 52 54 56 59 59 58 58
54 64 47 51 58 39 32 58 74 69 83 98 99 99 98 94 90 86 89 87 81 80 82 88 79 85 89 83 74 79 83 87 84 82 79 78 67 57 52 52 49 47 46 48 51 56 58 61 60 58 59 61 60 55
52 52 40 55 45 34 44 61 74 74 97 99 98 98 98 99 95 94 96 89 85 84 78 79 86 89 90 89 90 81 78 79 79 73 73 72 65 55 53 49 49 50 52 55 56 55 56 52 51 51 53 54 45 37
37 40 43 37 33 33 49 59 76 91 98 98 98 99 99 98 97 95 92 86 76 75 75 72 77 80 83 83 86 89 89 86 83 75 74 69 56 58 58 56 53 54 55 55 56 54 53 56 55 53 50 47 43 40
29 29 25 23 23 34 52 71 85 96 98 99 99 99 98 98 98 84 77 74 69 66 68 68 70 73 76 74 81 82 88 86 75 74 68 57 56 53 52 56 59 59 62 63 65 65 67 68 65 60 53 46 42 43
22 19 17 19 26 37 50 72 92 97 98 98 99 98 99 92 77 63 60 59 59 62 64 70 71 75 74 75 75 75 75 74 77 72 60 55 55 54 55 56 59 60 65 65 68 70 68 62 54 50 45 43 42 40
20 17 16 22 26 38 56 79 90 97 98 99 98 98 85 76 72 70 65 62 61 63 63 71 75 76 79 80 76 74 72 71 61 51 47 47 49 52 56 59 61 62 64 66 66 64 61 53 48 43 40 40 40 38
21 19 17 20 27 44 66 81 87 98 98 98 98 89 79 79 77 73 70 67 63 66 69 71 79 82 83 80 76 71 68 62 51 49 45 44 47 51 54 57 59 62 62 61 61 57 51 45 42 41 42 41 39 41
23 23 18 20 29 54 72 82 94 98 98 98 96 85 85 81 79 74 72 72 72 73 77 77 77 76 78 81 75 68 63 57 55 51 49 48 51 55 58 61 62 62 62 61 58 54 48 45 46 45 44 45 52 57
26 22 18 20 27 58 78 83 91 98 98 97 92 89 86 86 80 77 77 79 81 82 79 80 77 80 77 76 73 68 67 66 62 57 56 59 63 65 65 67 68 66 63 59 55 47 46 48 49 52 57 60 60 59
26 23 19 19 30 62 82 86 90 97 97 95 91 91 91 88 87 88 86 88 85 83 79 79 81 83 78 77 76 73 70 67 64 66 65 65 68 69 69 69 67 64 63 61 52 51 52 55 57 59 61 60 60 60
26 24 21 17 25 61 83 93 92 96 96 95 93 92 91 92 92 92 93 90 88 88 89 86 83 79 79 77 74 76 74 72 69 71 68 68 73 72 71 67 65 67 58 55 55 56 57 58 61 62 61 61 60 59
23 20 17 17 26 58 83 97 97 97 96 97 97 95 94 94 95 97 97 97 98 98 96 90 85 82 82 82 82 83 80 77 79 76 76 78 78 77 76 74 63 59 59 59 58 58 60 61 62 62 64 64 63 61
24 22 19 22 34 55 80 95 98 97 97 96 97 97 97 97 97 98 98 98 97 96 95 94 92 91 89 82 80 81 79 79 80 82 84 83 82 80 70 65 63 63 63 61 61 64 65 67 69 70 68 65 63 59
25 24 24 28 35 52 77 88 97 97 98 97 97 98 98 98 98 98 97 96 97 97 98 98 98 97 97 94 93 89 88 84 80 77 79 78 74 72 68 66 66 65 64 66 69 71 74 76 74 70 66 62 57 55
28 28 26 29 35 47 63 83 96 97 97 97 98 97 97 98 97 97 96 94 95 97 98 98 98 98 97 97 96 95 93 87 84 85 82 77 73 71 73 74 75 75 76 78 82 81 76 73 68 65 60 56 55 55
31 33 31 33 35 42 56 78 89 97 97 97 97 97 97 97 97 97 95 95 94 95 96 97 97 96 94 95 95 95 95 93 90 86 86 80 78 79 80 82 84 85 87 83 78 74 72 68 64 59 56 56 55 55
37 40 37 37 40 46 54 71 92 97 97 97 97 97 97 97 97 97 96 96 96 97 97 97 96 94 93 92 94 95 94 89 86 84 86 86 85 84 85 88 87 85 81 77 72 68 66 63 60 58 57 56 54 49
44 46 41 39 41 42 51 55 74 94 97 98 97 97 97 97 97 97 97 97 97 97 97 97 96 92 89 89 91 90 90 91 90 92 92 93 91 89 88 83 78 75 73 70 68 65 62 60 59 57 54 50 47 47
52 52 44 43 43 42 46 52 64 88 95 97 98 97 97 97 97 97 97 97 98 98 98 98 97 94 94 96 97 96 97 97 96 94 93 92 89 85 81 78 74 71 68 65 62 60 58 57 54 50 49 49 48 48
58 54 46 47 45 44 46 51 63 74 89 94 97 97 97 98 98 98 98 97 98 98 98 98 97 97 97 97 97 97 96 95 91 88 83 81 80 78 74 71 68 65 62 60 58 58 55 52 51 51 51 50 49 49
61 58 51 51 48 46 47 50 54 62 75 88 94 95 95 96 97 97 97 98 98 98 98 98 98 98 98 98 97 95 92 89 86 81 77 74 72 71 69 66 63 61 60 60 57 55 53 53 54 51 49 50 49 46
67 63 59 55 55 55 52 52 52 56 64 77 91 97 97 96 98 98 98 98 98 98 98 98 98 98 97 96 93 89 85 83 81 78 75 71 69 67 65 63 62 62 61 58 56 55 54 52 50 50 50 48 40 31
71 71 71 66 63 61 62 58 58 57 56 65 82 94 97 98 98 98 98 98 98 98 98 98 98 96 95 92 89 86 83 80 77 74 71 69 69 68 67 66 65 61 59 58 56 55 54 52 51 50 43 34 33 31
79 77 78 78 72 69 68 67 63 61 60 58 59 75 85 91 94 95 96 97 97 97 97 96 94 93 91 89 87 86 84 82 81 79 76 73 72 70 69 66 63 60 58 57 56 55 54 54 48 38 35 32 25 24